Location: Umburanas
(4.5000°S, 37.9667°W)
Time: 02:20:09
(UTC+00:00)

FALCON 9 R/B - Pass Details

Date: 19 November 2019
Orbit: 241 x 17465 km, 27.0° (Epoch: 09 December)

Event Time Altitude Azimuth Distance (km) Brightness Sun altitude
Rises 20:54:54 0° 290° (WNW) 1,831 4.6 -7.3°
Reaches altitude 10° 20:56:32 10° 283° (WNW) 971 3.3 -7.7°
Maximum altitude 20:58:14 48° 204° (SSW) 358 0.5 -8.1°
Drops below altitude 10° 21:00:51 10° 127° (SE) 1,498 2.9 -8.7°
Sets 21:04:12 0° 121° (ESE) 3,239 4.6 -9.5°
